sat.trackr.live / text

‹ back to catalog

STARLINK-30136

NORAD 56844 · 2023-079X

PAYLOAD ACTIVE UNKNOWN

§ Identity

Operator
Country
US
Launch date
2023-06-04
Launch site
AFETR
Launch vehicle
Mass (kg)
RCS (m²)

Purposes: comms

External: N2YO · Heavens-Above · Gunter

§ Orbital elements

Epoch: 2026-05-24T23:15:10.635840Z

Period
94.27 min
Inclination
43.0063°
Eccentricity
0.0000999
Mean motion
15.27590345 rev/d
Perigee alt
482.3 km
Apogee alt
483.7 km
Semi-major
6,861.2 km
B*
-8.0912e-5
RAAN
36.2103°
Arg perigee
214.5157°
Mean anomaly
145.5630°
Rev number
16,455

§ Raw data

STARLINK-301361 56844U 23079X   26144.96887310 -.00002489  00000+0 -80912-4 0  99952 56844  43.0063  36.2103 0000999 214.5157 145.5630 15.27590345164558

JSON: /api/v1/satellites/56844 · /tle

For live sub-satellite position, see the globe view (requires WebGL).

§ Visibility from observer

Set your observer location to see the next 7 days of passes ≥ 10°. The values pass through the URL so the page stays shareable.

No JS? Fill the form by hand. The geolocation button needs JavaScript.